Flag Weather past 2 weeks in Saratov, Russia

Now
48 °F

Partly sunny.


Feels Like: 44 °F
Forecast: 44 / 51 °F
Wind: 10 mph from South

Location: Saratov / Tsentralny

Current Time: Oct 30, 2014 at 3:39:20 PM

Latest Report: Oct 30, 2014 at 3:00 PM


Visibility: 3 mi

Pressure: 30.24 "Hg

Humidity: 46%

Dew point: 28 °F

Location of SaratovLocation

Historic Weather in Saratov — Graph

°F

Saratov temperature yesterday

Maximum temperature yesterday: 45 °F (at 1:00 PM)
Minimum temperature yesterday: 37 °F (at 9:00 AM)
Average temperature yesterday: 42 °F

Past Weeks' High & Low Weather Summary

 TemperatureHumidityPressure
High66 °F (Oct 15, 4:00 PM)100% (Oct 17, 2:00 PM)30.66 "Hg (Oct 17, 2:00 PM)
Low14 °F (Oct 24, 7:30 AM)25% (Oct 28, 2:00 PM)29.42 "Hg (Oct 21, 7:00 PM)
Average36 °F67%30.04 "Hg
* Reported Oct 15 3:00 PM — Oct 30 2:30 PM, Saratov, Weather by CustomWeather, © 2014

Note: Actual official high and low records may vary slightly from our data, if they occured in-between our weather recording intervals... More about our weather records

Advertising

Saratov weather history for previous 24 hours

 ConditionsComfort  
Time TempWeatherWind HumidityBarometerVisibility
2:30 PM
Oct 30
48 °FPartly sunny.8 mph46%30.27 "Hg3 mi
2:00 PM48 °FPartly sunny.8 mph50%30.27 "Hg3 mi
1:30 PM48 °FPartly sunny.6 mph46%30.27 "Hg4 mi
1:00 PM48 °FPartly sunny.8 mph46%30.27 "Hg4 mi
12:30 PM48 °FPartly sunny.6 mph50%30.27 "Hg3 mi
12:00 PM48 °FPartly sunny.6 mph50%30.27 "Hg3 mi
11:30 AM46 °FPartly sunny.3 mph53%30.27 "Hg3 mi
11:00 AM46 °FPartly sunny.3 mph53%30.27 "Hg3 mi
10:30 AM45 °FScattered clouds.1 mph57%30.27 "Hg3 mi
10:00 AM45 °FScattered clouds.1 mph57%30.27 "Hg3 mi
9:30 AM43 °FScattered clouds.1 mph57%30.27 "Hg3 mi
9:00 AM43 °FScattered clouds.No wind57%30.27 "Hg3 mi
8:30 AM36 °FFog.No wind87%30.27 "Hg4 mi
8:00 AM36 °FScattered clouds.No wind87%30.27 "Hg4 mi
7:30 AM36 °FClear.No wind87%30.27 "Hg10 mi
7:00 AM36 °FClear.No wind87%30.27 "Hg10 mi
6:30 AM36 °FClear.No wind75%30.27 "Hg10 mi
6:00 AM36 °FClear.No wind75%30.27 "Hg10 mi
5:30 AM37 °FClear.No wind65%30.27 "Hg10 mi
5:00 AM37 °FClear.No wind65%30.27 "Hg10 mi
4:30 AM37 °FClear.No wind65%30.27 "Hg10 mi
4:00 AM37 °FClear.No wind65%30.27 "Hg10 mi
3:30 AM37 °FClear.No wind75%30.27 "Hg10 mi
3:00 AM37 °FClear.No wind75%30.27 "Hg10 mi
2:30 AM37 °FClear.No wind70%30.27 "Hg10 mi
2:00 AM37 °FClear.3 mph70%30.27 "Hg10 mi
1:30 AM39 °FClear.3 mph61%30.27 "Hg10 mi
1:00 AM39 °FClear.6 mph61%30.27 "Hg10 mi
12:30 AM39 °FClear.6 mph61%30.27 "Hg10 mi
12:00 AM39 °FClear.6 mph61%30.27 "Hg10 mi
11:30 PM
Oct 29
41 °FClear.8 mph57%30.27 "Hg10 mi
11:00 PM41 °FClear.6 mph57%30.27 "Hg10 mi
10:30 PM41 °FClear.6 mph53%30.27 "Hg10 mi
10:00 PM41 °FClear.6 mph53%30.27 "Hg10 mi
9:30 PM41 °FClear.8 mph53%30.27 "Hg10 mi
9:00 PM41 °FClear.6 mph53%30.27 "Hg10 mi
8:30 PM43 °FClear.10 mph49%30.30 "Hg10 mi
8:00 PM43 °FClear.10 mph49%30.30 "Hg10 mi
7:30 PM43 °FClear.10 mph49%30.30 "Hg10 mi
7:00 PM43 °FClear.10 mph49%30.30 "Hg10 mi
6:30 PM43 °FClear.8 mph57%30.27 "Hg10 mi
6:00 PM43 °FClear.10 mph57%30.27 "Hg10 mi
5:30 PM45 °FPartly sunny.8 mph49%30.27 "Hg4 mi
5:00 PM45 °FPartly sunny.8 mph49%30.27 "Hg4 mi
4:30 PM45 °FSunny.10 mph49%30.27 "Hg10 mi
4:00 PM45 °FSunny.8 mph49%30.27 "Hg10 mi
3:30 PM45 °FSunny.8 mph49%30.27 "Hg10 mi
3:00 PM45 °FSunny.8 mph49%30.27 "Hg10 mi
Weather by CustomWeather, © 2014

See weather overviewHow to use our weather pages